Temp
12 12 11 11 11 11 13 14 13 14 13 13 13 13 14 13 14 14 13 13 13 12 12 12 12 11 11 11 10 10 9 9 9 8 8 8 8 8 8 8 8 8 8 8 8 8 8 9 9
11 11 11 9 12 14 15 13 13 13 13 13 13 13 13 13 13 13 13 13 13 12 12 12 12 11 11 11 10 9 9 9 9 8 8 8 8 8 8 8 8 8 8 8 8 8 8 8 8
11 11 9 11 13 15 16 14 14 13 12 13 13 13 13 13 13 13 13 13 12 12 12 12 11 11 11 10 10 9 9 9 9 8 8 8 8 8 8 8 8 7 7 7 7 8 7 7 7
10 10 10 11 14 14 14 14 13 13 13 13 13 13 13 13 13 13 12 12 12 12 12 12 11 11 10 10 10 9 9 9 9 8 8 8 8 8 8 7 7 8 7 7 6 6 7 7 7
10 9 11 12 13 13 13 13 13 13 13 13 13 13 13 13 13 13 12 12 12 12 12 12 11 11 10 10 10 9 9 9 9 8 8 8 8 8 7 7 7 7 6 7 5 5 6 6 6
8 9 11 13 14 13 13 13 13 13 13 13 13 13 13 13 13 13 13 12 12 12 12 12 11 11 10 10 10 10 9 9 9 8 8 8 8 7 7 7 6 6 6 6 6 5 4 4 4
11 10 12 13 13 13 13 13 13 13 13 13 12 12 13 12 12 12 12 12 12 12 12 12 11 11 11 10 10 10 10 9 9 8 8 8 7 7 7 6 6 6 6 6 6 6 5 4 4
10 10 11 13 13 13 13 12 12 13 13 12 12 12 12 12 12 12 12 12 12 12 12 11 11 11 10 10 10 10 10 9 9 8 8 8 7 7 7 6 6 5 6 6 6 6 5 5 5
10 9 11 13 13 13 12 12 12 12 12 12 11 12 12 12 12 12 12 12 12 12 12 11 11 11 10 10 10 10 9 9 8 8 7 7 7 7 6 6 5 6 5 5 5 5 5 5 5
9 10 11 12 12 12 12 11 11 11 11 11 11 12 11 12 12 12 11 11 12 12 12 11 11 11 11 10 10 9 9 8 8 8 7 7 7 6 6 6 6 5 5 5 5 5 5 5 5
9 10 11 12 12 11 11 11 11 11 11 12 11 11 11 11 12 12 12 11 12 11 12 12 11 11 11 10 10 9 9 8 8 8 7 7 6 6 6 5 5 5 5 5 5 5 5 5 5
9 10 10 10 11 11 10 10 10 11 10 12 11 10 12 12 12 12 11 11 11 12 12 12 12 11 10 10 10 9 9 8 8 7 7 7 6 6 6 5 5 4 4 4 5 5 5 4 4
9 9 9 9 9 9 9 10 11 10 10 13 12 12 12 12 12 12 13 12 11 12 12 12 12 11 11 10 10 9 9 8 8 7 7 6 6 6 5 5 4 4 4 4 4 4 4 3 3
9 9 9 9 9 10 10 10 10 10 12 13 11 12 12 11 12 12 12 12 11 12 12 12 12 11 11 10 10 9 9 8 8 7 7 6 6 5 5 4 3 3 3 3 3 3 2 2 2
8 9 9 8 9 9 10 10 10 11 12 12 12 12 11 12 12 12 12 11 11 12 12 12 12 12 11 10 10 9 9 8 8 7 6 6 6 5 5 4 3 3 3 3 3 3 3 2 3
7 8 9 9 9 9 9 10 11 11 11 11 11 11 12 12 12 12 11 11 11 12 12 12 12 12 12 11 10 9 8 8 7 7 6 6 6 5 4 4 3 3 3 3 3 2 2 2 3
8 8 9 9 10 9 9 10 11 11 11 10 11 11 11 12 12 11 11 11 12 12 12 12 12 12 12 11 9 9 8 8 7 6 6 6 5 5 4 4 3 3 3 3 2 2 2 3 3
9 9 9 10 11 9 9 10 10 11 10 10 10 10 10 11 12 11 11 12 12 12 12 12 12 12 12 11 11 9 8 8 7 6 6 6 5 5 4 4 3 3 2 2 2 2 2 2 2
8 10 10 10 10 10 9 10 10 11 10 9 10 10 10 11 12 12 12 12 13 13 13 12 12 12 12 11 10 8 8 7 6 6 6 5 5 4 4 3 3 3 2 1 1 2 2 2 2
7 8 9 10 10 9 9 9 10 10 10 9 10 10 10 11 12 12 12 13 13 13 13 12 12 12 11 10 9 8 7 7 6 6 6 5 4 4 3 3 2 2 2 2 2 2 2 2 2
7 7 8 9 9 9 8 8 8 9 9 10 10 10 11 12 12 12 13 13 13 13 12 12 12 11 11 10 9 8 7 6 6 6 5 4 4 3 3 2 2 2 2 2 2 2 2 2 2
8 7 7 7 8 8 9 10 9 10 10 10 10 10 10 11 12 12 13 13 13 13 13 12 11 11 10 9 8 7 6 6 6 5 4 4 3 3 3 2 2 2 2 2 2 2 2 2 2
7 8 7 7 7 7 8 9 9 9 9 9 10 10 11 11 12 12 12 12 13 12 12 11 11 10 9 8 7 7 6 6 5 4 4 3 3 3 3 2 2 2 2 2 2 2 2 2 2
7 7 7 7 7 9 8 8 9 9 10 10 10 11 11 12 12 13 12 13 13 12 11 11 10 9 8 7 7 7 6 5 5 4 3 3 3 3 3 3 2 2 2 2 2 2 2 2 2
6 6 9 9 9 10 9 9 9 10 10 10 10 11 11 12 12 13 13 12 12 11 11 10 9 9 8 7 7 6 6 5 5 4 4 4 4 3 3 3 2 3 3 2 2 2 2 2 2
6 7 11 10 11 12 10 10 10 10 10 10 10 10 11 12 12 12 12 12 11 11 10 9 9 8 7 7 7 6 5 5 4 4 4 4 4 3 3 3 3 3 3 3 2 2 2 2 2
7 7 9 11 10 12 12 10 10 11 10 10 10 10 12 12 12 12 12 11 11 10 9 9 8 7 7 7 6 5 5 4 4 4 4 4 4 3 3 3 3 3 3 3 2 2 2 2 1
7 7 8 9 10 10 13 11 12 12 11 11 11 12 12 12 12 12 11 11 11 10 9 8 8 8 7 6 6 5 5 4 4 4 4 4 4 3 3 3 3 3 3 3 2 2 2 2 2
7 8 8 9 10 12 12 13 11 11 12 12 12 12 13 13 13 12 11 11 10 9 9 8 8 7 7 6 6 5 4 4 4 4 4 3 4 3 3 3 3 3 2 2 2 3 2 2 2
8 8 8 9 9 10 12 13 11 11 11 11 11 13 13 13 12 12 11 10 10 9 8 8 8 7 7 6 6 5 4 4 3 4 4 3 4 3 3 3 3 3 2 3 3 3 3 3 2
Height
3180 3182 3183 3185 3193 3187 3184 3185 3183 3185 3186 3184 3184 3184 3185 3184 3185 3186 3182 3179 3178 3176 3175 3173 3172 3171 3169 3166 3165 3163 3162 3160 3159 3158 3156 3154 3152 3151 3149 3148 3146 3145 3145 3145 3146 3147 3148 3149 3149
3179 3181 3183 3185 3188 3183 3180 3183 3183 3183 3183 3181 3181 3182 3181 3182 3182 3181 3179 3178 3176 3175 3173 3172 3171 3170 3168 3166 3165 3164 3162 3160 3158 3156 3155 3153 3151 3149 3146 3145 3143 3141 3141 3141 3141 3142 3143 3144 3145
3178 3180 3185 3186 3183 3179 3176 3181 3182 3181 3180 3180 3180 3179 3180 3180 3179 3179 3177 3176 3174 3173 3171 3170 3168 3167 3166 3164 3163 3162 3160 3159 3157 3155 3153 3151 3148 3146 3144 3141 3140 3138 3137 3137 3137 3138 3138 3139 3140
3177 3180 3182 3181 3179 3179 3179 3179 3179 3180 3178 3179 3179 3179 3178 3177 3176 3176 3174 3173 3172 3170 3169 3167 3166 3164 3163 3162 3161 3160 3159 3157 3155 3153 3151 3148 3145 3143 3140 3137 3136 3134 3133 3133 3133 3133 3133 3134 3134
3176 3179 3182 3178 3177 3178 3177 3177 3177 3178 3178 3179 3177 3178 3177 3174 3173 3172 3171 3170 3169 3168 3167 3165 3163 3162 3160 3158 3158 3157 3155 3154 3152 3150 3148 3146 3143 3140 3137 3134 3131 3130 3129 3128 3128 3128 3129 3128 3129
3175 3176 3177 3175 3174 3175 3176 3175 3175 3176 3176 3176 3175 3175 3176 3172 3170 3170 3168 3167 3166 3165 3165 3163 3162 3160 3158 3156 3155 3153 3152 3150 3149 3147 3145 3142 3140 3137 3134 3130 3128 3126 3124 3123 3123 3123 3125 3125 3124
3170 3175 3172 3172 3172 3173 3173 3173 3172 3173 3174 3174 3172 3173 3174 3171 3168 3167 3166 3165 3163 3162 3161 3160 3160 3158 3156 3154 3153 3151 3149 3147 3145 3143 3141 3138 3135 3132 3129 3127 3124 3122 3120 3118 3117 3118 3119 3119 3119
3169 3172 3170 3170 3170 3171 3170 3169 3170 3171 3171 3168 3169 3170 3171 3167 3165 3164 3163 3161 3160 3158 3157 3156 3156 3155 3154 3151 3150 3148 3145 3143 3141 3140 3137 3134 3131 3128 3125 3122 3120 3117 3116 3114 3113 3113 3113 3114 3115
3163 3166 3166 3166 3167 3168 3165 3167 3166 3165 3166 3166 3165 3164 3164 3162 3161 3161 3160 3158 3156 3155 3153 3152 3152 3151 3150 3148 3146 3144 3142 3140 3138 3136 3134 3131 3128 3124 3120 3118 3116 3114 3112 3111 3110 3109 3109 3109 3109
3156 3157 3160 3163 3163 3164 3164 3161 3162 3161 3162 3162 3162 3162 3159 3157 3156 3156 3156 3154 3152 3150 3148 3147 3147 3147 3146 3145 3142 3140 3138 3137 3135 3132 3130 3127 3124 3121 3117 3114 3111 3109 3108 3107 3107 3106 3105 3105 3104
3150 3145 3157 3158 3159 3159 3157 3156 3158 3156 3156 3158 3157 3156 3155 3152 3151 3151 3150 3149 3148 3146 3144 3143 3142 3142 3141 3140 3138 3136 3134 3133 3131 3129 3127 3123 3120 3116 3113 3110 3107 3106 3104 3103 3101 3100 3100 3099 3099
3143 3142 3147 3151 3153 3153 3150 3150 3147 3149 3149 3150 3149 3148 3148 3147 3147 3146 3144 3143 3142 3140 3139 3137 3136 3136 3135 3134 3134 3132 3131 3129 3127 3125 3122 3119 3115 3112 3108 3105 3103 3100 3099 3098 3097 3095 3093 3093 3094
3134 3139 3141 3143 3143 3145 3144 3141 3140 3139 3141 3143 3143 3142 3141 3140 3139 3138 3135 3133 3134 3134 3133 3132 3131 3130 3129 3128 3128 3128 3127 3125 3123 3120 3117 3114 3110 3107 3103 3101 3097 3095 3093 3092 3091 3090 3088 3088 3089
3133 3134 3135 3136 3137 3138 3138 3134 3135 3134 3136 3136 3136 3136 3136 3134 3132 3128 3125 3123 3126 3127 3127 3125 3125 3124 3123 3123 3123 3123 3122 3120 3118 3115 3112 3108 3105 3102 3098 3095 3092 3090 3088 3087 3085 3083 3083 3083 3085
3124 3125 3127 3126 3130 3129 3133 3122 3124 3129 3130 3128 3129 3128 3128 3126 3125 3120 3116 3115 3118 3119 3119 3120 3119 3117 3117 3117 3117 3117 3116 3115 3113 3110 3106 3103 3100 3097 3093 3089 3086 3085 3084 3082 3081 3079 3080 3079 3080
3115 3118 3114 3120 3123 3125 3127 3105 3120 3125 3125 3123 3121 3121 3120 3118 3116 3111 3109 3108 3111 3111 3113 3113 3112 3111 3110 3110 3110 3111 3110 3109 3107 3104 3100 3097 3095 3092 3088 3084 3081 3079 3078 3077 3076 3076 3076 3076 3078
3104 3097 3103 3114 3118 3119 3118 3099 3113 3118 3116 3114 3113 3112 3112 3111 3107 3105 3102 3102 3104 3104 3106 3106 3105 3105 3104 3104 3105 3104 3104 3103 3101 3098 3094 3092 3089 3086 3082 3079 3076 3074 3072 3071 3072 3072 3072 3073 3074
3092 3096 3101 3102 3110 3108 3108 3095 3108 3111 3109 3106 3106 3105 3105 3102 3099 3098 3096 3097 3097 3099 3099 3099 3099 3098 3097 3097 3097 3097 3098 3097 3095 3092 3089 3086 3083 3080 3076 3073 3071 3069 3067 3066 3067 3068 3069 3069 3069
3090 3090 3090 3096 3103 3102 3099 3096 3098 3104 3100 3098 3099 3100 3097 3095 3094 3092 3091 3092 3092 3093 3093 3093 3093 3092 3091 3091 3092 3093 3092 3091 3089 3086 3083 3081 3078 3074 3071 3068 3066 3064 3063 3061 3061 3064 3064 3065 3065
3081 3083 3083 3090 3095 3097 3096 3089 3090 3093 3093 3091 3090 3090 3089 3087 3087 3086 3085 3086 3087 3088 3088 3087 3086 3086 3085 3086 3087 3087 3088 3086 3083 3080 3077 3074 3072 3069 3065 3063 3060 3059 3058 3058 3059 3060 3060 3061 3062
3068 3073 3082 3085 3090 3090 3090 3082 3081 3083 3083 3080 3080 3078 3079 3080 3081 3081 3080 3081 3082 3082 3082 3081 3079 3079 3080 3082 3083 3083 3083 3081 3078 3074 3071 3069 3067 3064 3061 3058 3056 3056 3056 3056 3056 3056 3057 3059 3061
3058 3073 3079 3082 3086 3077 3087 3063 3070 3073 3070 3071 3069 3071 3071 3073 3075 3075 3075 3076 3077 3077 3077 3076 3075 3075 3077 3078 3079 3079 3078 3076 3073 3070 3067 3064 3061 3059 3056 3055 3054 3053 3053 3053 3053 3055 3056 3058 3060
3052 3069 3073 3075 3075 3075 3075 3071 3060 3065 3060 3059 3061 3062 3064 3067 3069 3069 3070 3071 3072 3073 3072 3073 3073 3073 3074 3075 3075 3075 3073 3071 3068 3066 3063 3060 3057 3055 3053 3052 3052 3052 3051 3052 3053 3054 3056 3058 3060
3058 3064 3067 3068 3070 3060 3065 3066 3057 3052 3050 3051 3054 3056 3059 3061 3063 3064 3065 3067 3068 3068 3069 3069 3070 3070 3071 3071 3071 3070 3068 3067 3064 3062 3059 3056 3054 3052 3052 3052 3051 3051 3051 3051 3052 3054 3057 3058 3060
3046 3054 3057 3058 3055 3047 3056 3055 3044 3041 3042 3043 3049 3051 3052 3057 3058 3060 3062 3063 3064 3065 3066 3067 3067 3067 3068 3068 3067 3066 3065 3063 3061 3059 3056 3054 3052 3051 3051 3051 3051 3051 3051 3052 3054 3056 3058 3058 3059
3028 3036 3033 3037 3038 3039 3045 3041 3035 3033 3035 3035 3041 3047 3049 3052 3055 3057 3059 3060 3061 3063 3063 3064 3064 3065 3065 3064 3064 3063 3062 3061 3059 3057 3054 3053 3051 3051 3050 3050 3051 3052 3053 3054 3056 3057 3057 3058 3059
3020 3024 3030 3032 3034 3033 3031 3037 3032 3029 3029 3031 3034 3040 3045 3050 3052 3054 3056 3058 3059 3060 3061 3061 3061 3062 3061 3061 3061 3060 3060 3059 3057 3056 3053 3052 3051 3051 3050 3051 3052 3053 3055 3056 3056 3057 3057 3058 3060
3012 3023 3028 3028 3027 3030 3025 3029 3028 3027 3027 3029 3033 3038 3043 3046 3049 3050 3053 3055 3056 3057 3058 3058 3059 3058 3058 3059 3059 3058 3058 3057 3056 3054 3053 3052 3051 3050 3051 3052 3053 3055 3056 3056 3057 3057 3058 3059 3059
3004 3010 3016 3021 3022 3022 3023 3023 3023 3025 3028 3031 3035 3037 3040 3043 3046 3048 3051 3052 3054 3055 3056 3056 3056 3056 3057 3057 3057 3057 3056 3055 3054 3053 3052 3052 3052 3052 3053 3054 3055 3056 3057 3057 3058 3058 3058 3059 3061
3000 3003 3010 3011 3018 3021 3020 3020 3020 3024 3027 3030 3033 3033 3036 3041 3044 3046 3048 3051 3052 3053 3053 3053 3054 3055 3056 3056 3056 3055 3055 3054 3052 3052 3052 3052 3052 3053 3055 3056 3056 3057 3058 3058 3059 3059 3059 3061 3063
Wind_Speed
9 9 8 8 4 6 12 9 7 6 3 5 4 4 6 8 7 11 13 14 15 14 12 12 17 21 17 13 12 13 14 16 16 16 18 18 16 16 17 19 20 20 20 19 20 20 20 22 24
10 9 9 6 6 10 12 11 9 8 7 6 8 8 7 7 9 12 13 14 16 15 14 14 16 17 15 11 9 9 12 13 14 15 18 19 18 15 15 17 20 21 22 21 21 22 22 22 24
11 11 6 6 11 12 7 11 8 6 7 6 6 9 7 5 9 10 12 16 17 15 16 16 15 14 11 8 6 7 9 12 14 16 17 19 21 20 16 15 16 18 21 23 22 22 23 24 24
10 10 11 11 12 10 9 10 8 5 7 10 9 6 8 6 10 10 12 14 16 16 14 17 15 13 11 10 9 9 10 12 14 16 19 21 24 24 21 18 17 17 17 17 19 21 23 25 24
12 10 13 15 14 13 13 13 11 9 8 7 11 8 8 10 13 12 9 13 16 19 14 17 11 11 11 12 12 12 12 14 16 18 20 22 25 27 25 22 19 20 19 20 19 20 20 24 25
11 11 15 19 17 13 13 14 15 14 12 9 5 7 7 11 14 15 16 11 14 19 18 19 12 10 11 13 14 15 17 18 20 22 23 24 26 28 28 23 20 19 19 20 22 21 18 22 23
16 15 18 19 18 15 13 12 13 12 14 10 10 10 10 9 17 18 18 15 14 16 21 22 15 13 9 10 14 15 16 18 21 23 25 27 29 31 29 23 19 18 18 18 19 20 22 24 23
18 18 21 20 19 16 12 9 10 12 14 18 18 12 10 17 21 23 17 16 15 16 18 26 17 17 13 10 12 14 14 17 20 23 25 28 30 32 30 24 22 20 20 19 19 19 20 22 23
21 20 25 23 20 17 11 8 14 15 16 16 18 23 20 23 21 23 22 21 20 17 19 23 24 19 18 16 13 16 17 18 20 23 25 28 30 33 31 26 24 22 21 20 20 21 22 23 24
26 26 31 28 21 21 19 18 16 21 20 22 20 20 23 23 22 24 26 25 24 19 22 23 28 23 23 22 19 17 18 20 21 23 27 29 30 32 29 27 24 21 20 19 19 21 22 23 25
31 44 37 34 30 28 28 28 25 25 30 30 26 23 23 26 26 26 26 27 24 20 21 22 24 28 27 27 24 21 20 21 22 24 28 30 30 32 29 26 23 19 19 19 20 22 24 27 27
44 42 35 37 36 33 31 32 33 34 31 34 31 26 26 28 30 30 30 29 25 24 20 21 22 25 30 31 26 25 24 24 24 25 28 30 31 30 29 27 24 21 21 21 23 24 28 27 27
44 38 37 36 38 36 35 39 43 40 35 36 30 25 24 31 33 38 42 33 29 23 22 22 24 28 31 35 30 28 26 27 27 27 30 30 30 30 30 28 25 23 24 25 25 23 24 27 27
41 40 41 39 40 39 39 43 40 40 37 36 29 28 30 31 38 46 45 34 33 26 26 25 28 27 33 34 34 29 29 29 28 30 31 30 29 30 30 28 25 25 25 23 23 22 19 21 24
39 41 40 37 36 40 38 45 43 40 38 37 35 32 31 40 43 48 41 34 33 29 30 28 31 30 31 33 35 33 30 29 30 31 30 29 30 30 30 28 25 23 21 20 21 18 17 15 16
32 38 44 42 36 32 31 54 41 31 29 32 32 34 39 44 45 43 33 30 31 31 32 34 31 37 33 25 32 34 33 29 30 32 30 30 31 29 27 28 25 21 20 19 16 14 16 14 14
40 47 47 40 35 36 36 55 43 33 30 28 33 38 44 47 47 32 26 26 29 30 29 32 31 29 27 23 24 36 34 30 30 31 29 30 30 28 28 26 21 22 21 16 16 17 16 16 17
45 37 41 43 32 32 39 50 39 36 34 34 33 34 41 49 40 22 24 25 24 24 23 21 24 29 27 29 31 32 31 29 30 31 29 30 28 28 27 23 21 23 18 18 17 17 17 17 18
41 39 44 42 37 38 38 43 41 37 35 35 36 37 43 44 22 22 22 21 17 20 20 23 26 29 28 26 28 27 29 28 30 30 30 28 27 26 23 22 22 24 20 22 13 15 16 15 14
41 40 45 38 32 34 35 43 41 38 39 39 40 42 38 32 22 19 21 20 18 18 23 27 31 29 23 26 25 26 25 28 29 29 29 26 26 24 21 25 22 20 17 9 12 15 15 14 14
47 45 37 38 29 27 34 42 42 40 40 41 38 36 35 25 20 14 14 18 20 22 24 30 31 21 20 20 21 22 24 27 26 28 25 25 25 23 26 18 19 11 8 9 11 11 12 11 12
50 37 34 35 30 40 32 38 45 38 39 36 34 32 29 23 19 15 14 18 20 22 22 21 17 15 14 16 17 19 23 23 26 23 24 25 24 25 18 14 9 8 8 8 8 8 10 12 12
49 29 33 31 32 35 38 36 38 28 34 36 33 24 22 21 18 18 17 20 12 14 15 14 12 11 12 13 16 20 20 21 20 21 23 23 23 16 12 9 7 7 6 6 6 8 12 11 11
31 29 26 26 27 29 32 34 38 40 39 31 22 20 20 21 17 18 18 12 11 12 13 11 11 10 11 13 17 18 17 16 18 19 19 14 13 12 8 6 5 3 3 6 10 14 10 10 11
36 34 13 16 18 16 24 23 38 29 23 24 15 14 22 17 13 12 13 12 10 9 10 9 9 10 12 15 16 15 12 13 15 12 12 10 8 6 5 4 2 3 5 11 13 10 6 8 9
49 42 25 18 14 14 23 14 24 15 18 23 21 16 19 17 15 13 14 12 7 7 8 9 10 11 12 14 13 10 10 12 10 10 10 6 3 4 3 2 4 6 8 11 8 4 3 6 10
43 50 39 12 8 10 13 17 21 16 15 14 17 22 23 18 14 13 15 11 6 7 8 9 10 9 11 11 8 9 10 8 9 8 8 3 2 4 4 5 6 7 8 8 6 5 4 7 9
41 39 36 27 15 12 10 16 12 2 8 12 21 25 23 20 13 14 16 11 7 8 8 9 9 8 9 7 7 9 8 8 8 7 7 1 3 5 6 8 8 7 7 8 6 7 6 7 6
37 43 36 31 18 13 6 8 13 11 11 16 14 19 21 18 14 12 15 11 9 7 9 9 6 8 7 7 7 8 7 8 7 4 3 2 4 6 9 10 8 7 7 7 7 5 5 7 8
37 34 40 29 26 18 12 4 2 8 13 13 13 19 20 18 13 10 11 10 8 7 8 7 6 7 7 7 6 6 7 6 2 1 1 5 6 7 8 8 7 5 5 5 7 6 6 9 9
Wind_Direction
207 200 180 185 184 229 225 207 190 182 200 211 222 237 266 272 297 311 316 320 325 323 327 351 358 358 356 358 358 1 359 356 355 358 358 350 335 317 300 286 278 275 271 264 264 261 252 250 249
202 197 193 200 222 225 211 209 195 210 234 249 244 264 281 287 291 300 321 317 320 312 312 330 351 355 357 352 356 357 359 354 350 351 353 355 348 330 310 294 281 275 271 264 257 256 255 248 248
204 200 178 224 239 238 239 200 203 227 243 259 236 239 249 295 323 313 317 323 315 307 315 322 343 347 345 341 343 340 352 354 349 349 349 351 347 342 327 308 291 277 268 265 261 255 253 252 248
210 215 231 227 238 238 216 204 212 235 243 241 237 266 283 281 294 304 315 322 314 304 319 320 336 345 337 336 332 330 337 343 344 345 345 345 346 342 332 315 298 283 274 267 264 258 257 256 248
220 218 234 243 249 245 223 218 246 235 244 244 243 252 269 284 278 276 306 316 317 299 311 314 331 359 346 342 332 328 328 331 335 339 340 341 341 340 332 320 307 293 282 277 274 267 261 255 251
220 216 236 242 252 250 241 234 242 247 244 241 245 245 274 274 272 274 278 283 297 292 290 306 304 333 346 353 344 335 330 328 329 333 335 335 336 335 332 318 304 293 283 275 269 263 255 256 255
228 243 243 252 254 263 247 241 245 244 234 244 250 266 266 287 272 274 281 280 281 286 278 290 286 300 316 331 335 331 325 320 321 326 329 331 331 332 330 317 300 291 288 280 272 266 258 254 258
235 240 249 250 255 265 253 238 230 223 237 243 269 271 269 274 274 273 273 275 284 287 279 274 282 280 283 291 307 309 312 312 312 317 324 326 326 328 326 316 303 292 287 281 276 270 265 261 258
240 241 249 245 251 260 268 241 229 232 238 258 264 268 277 280 276 271 273 274 282 283 273 272 276 267 274 276 294 298 307 307 310 316 321 321 323 324 324 314 299 290 284 276 270 269 269 268 266
245 249 249 248 248 268 262 264 262 276 276 271 272 279 279 280 288 281 276 281 275 276 280 278 270 271 272 276 285 287 301 304 311 315 319 320 320 319 316 309 301 288 283 279 271 266 265 266 263
249 256 254 254 256 269 264 264 269 275 275 277 277 277 275 281 293 295 295 278 272 280 277 270 267 267 270 270 276 284 292 298 306 312 317 316 316 315 313 306 295 284 281 279 281 275 265 266 259
249 251 249 251 257 262 264 275 273 270 273 281 278 285 275 279 290 292 287 274 267 262 273 271 266 264 262 268 273 281 288 294 299 307 313 312 313 312 311 305 292 287 285 286 282 277 271 260 254
247 253 249 257 258 257 265 269 274 274 274 275 280 285 290 292 302 305 302 269 255 259 265 266 262 260 263 264 270 277 286 292 296 303 309 310 310 308 309 304 293 287 289 292 288 278 262 253 253
252 253 258 256 257 259 265 268 270 268 273 271 282 280 290 295 306 307 297 268 250 254 257 256 268 270 265 266 269 273 280 289 295 299 306 308 306 307 309 304 293 288 289 291 291 282 262 251 245
244 250 248 252 253 254 263 264 262 270 272 271 278 283 295 304 304 300 290 266 249 249 257 260 265 274 270 268 269 270 277 286 294 297 304 304 305 306 309 301 293 288 286 289 280 270 256 245 234
242 244 249 247 249 252 251 261 258 266 269 270 274 284 293 303 301 296 285 265 249 250 258 261 263 271 276 265 270 272 275 284 291 296 301 303 303 306 306 302 291 284 283 291 273 258 251 240 235
237 240 242 251 249 254 243 259 262 268 263 260 277 287 293 299 295 292 266 255 250 255 257 265 268 271 275 263 264 274 273 281 290 295 299 302 302 306 306 297 284 286 273 282 263 250 240 244 246
230 238 247 251 250 244 247 259 259 257 263 268 277 289 293 293 293 268 249 249 249 258 258 256 263 272 273 254 266 265 271 280 288 295 297 302 301 304 302 294 282 277 280 281 254 244 249 258 254
240 241 247 251 249 248 250 259 264 264 262 270 276 283 289 288 271 255 250 252 258 251 257 265 269 277 274 256 262 268 273 282 289 295 299 299 299 301 300 293 288 282 288 264 232 255 260 257 245
234 239 244 251 249 248 259 261 262 261 265 270 278 280 280 278 249 256 251 246 253 264 262 270 276 279 259 250 263 271 275 283 291 296 302 299 300 301 301 296 287 284 282 224 234 244 252 241 224
233 233 240 245 248 254 260 267 267 267 267 270 271 269 278 257 240 242 238 246 260 262 268 276 279 256 248 264 269 271 279 287 293 300 298 297 300 299 300 293 287 272 249 242 249 247 237 214 203
233 233 239 246 250 253 254 268 271 270 264 262 262 269 265 249 244 240 252 261 269 272 277 282 268 252 263 263 267 276 284 292 300 297 297 301 302 302 293 289 269 257 259 257 247 236 203 184 193
231 232 235 244 250 262 257 260 269 268 267 267 269 257 247 240 243 242 258 270 259 274 286 274 254 253 256 267 276 285 292 298 297 298 303 301 301 296 289 276 264 264 264 249 236 192 173 180 185
222 223 231 239 246 251 255 254 268 264 265 269 268 253 223 225 239 250 254 231 264 273 271 256 247 251 267 277 287 292 298 294 302 307 308 308 306 288 269 249 256 260 246 209 177 163 162 172 184
201 193 200 222 226 253 249 246 256 262 258 256 244 210 217 219 230 223 217 232 240 266 257 249 253 268 279 285 291 296 291 302 308 314 313 313 306 268 247 237 212 168 158 159 151 146 163 194 190
198 191 205 215 229 244 223 241 243 257 263 250 232 206 202 204 218 229 221 221 246 245 249 255 258 274 282 291 293 286 295 303 311 322 318 321 282 232 202 168 167 148 156 162 162 160 173 151 147
199 209 208 233 249 255 189 245 260 270 262 239 214 198 196 205 211 218 212 222 242 235 245 257 268 277 287 290 284 291 294 299 313 319 333 334 213 191 157 152 149 153 167 181 187 190 190 165 170
205 199 200 211 225 218 231 250 242 299 212 189 180 187 196 207 220 211 204 220 240 238 254 262 269 280 288 286 292 289 290 281 305 312 336 300 177 145 156 146 153 162 161 171 168 140 126 156 171
191 200 206 211 221 204 237 234 253 235 207 181 192 200 206 212 205 197 204 218 237 234 252 257 265 287 283 279 287 285 278 277 300 298 299 198 148 147 150 139 148 158 158 151 147 135 142 171 179
198 202 197 196 198 225 228 225 276 195 172 178 190 192 193 174 175 194 206 226 217 243 248 248 265 293 272 270 280 269 273 301 290 193 198 161 151 161 159 154 150 151 159 162 149 155 160 161 156